Location: Bowden
(51.9167°N, 114.0333°W)
Time: 10:20:07
(UTC+00:00)

Envisat - Pass Details

Date: 11 December 2021
Orbit: 764 x 766 km, 98.2° (Epoch: 28 January)

Event Time Altitude Azimuth Distance (km) Brightness Sun altitude
Rises 14:29:21 0° 5° (N) 3,248 6.0 -9.3°
Reaches altitude 10° 14:32:17 10° 348° (NNW) 2,317 5.1 -8.9°
Maximum altitude 14:35:44 19° 305° (NW) 1,788 4.3 -8.4°
Drops below altitude 10° 14:39:09 10° 263° (W) 2,306 5.0 -8.0°
Sets 14:42:04 0° 245° (WSW) 3,228 5.9 -7.6°
